[[{"header":{"parameterUnit":"m.s-1","parameterCategory":2,"la1":30.2991,"la2":30.254,"lo1":-89.0895,"lo2":-89.0444,"dy":0.0017,"dx":0.0017,"nx":28,"ny":28,"refTime":"2024-12-25T09:00:00:Z","depth":"0","parameterNumber":2,"parameterNumberName":"U-component_of_CURRENTS"},"data":[0,0,0,0,0,0,0,0,0,0,0,0,0,0,0,0,0,0,0,0,0,0,0,0,0,0,0,0,0,0,0,0,0,0,0,0,0,0,0,0,0,0,0,0,0,0,0,0,0,0,0,0,0,0,0,0,0,0,0.2372,0.2371,0,0.2325,0.2325,0.2324,0.2297,0.2297,0.2297,0.2297,0.2268,0.2267,0.2267,0,0,0,0,0,0,0,0,0,0,0,0,0,0.2464,0.2462,0.2372,0.2371,0.2371,0.2326,0.2325,0.2324,0.2297,0.2297,0.2297,0.2297,0.2268,0.2267,0.2266,0,0,0,0,0,0,0,0,0,0,0,0,0,0.2421,0.2462,0.2372,0.2352,0.235,0.2326,0.2325,0.2324,0.2297,0.2297,0.2297,0.2297,0.2269,0.2267,0.2266,0.226,0,0,0.2263,0.2262,0,0,0,0,0,0,0,0,0.2423,0.2417,0.2356,0.2354,0.2351,0.2318,0.2347,0.2304,0.2297,0.2317,0.2297,0.2297,0.2287,0.2284,0.2274,0.2259,0.2258,0.2263,0.2262,0.2262,0.2261,0,0,0,0,0,0,0,0.2426,0.2419,0.2353,0.2355,0.2353,0.2356,0.2349,0.2338,0.2302,0.2315,0.2313,0.2309,0.2286,0.2275,0.2273,0.2257,0.2263,0.2262,0.2261,0.2261,0.2259,0.226,0,0,0,0,0,0,0.2432,0.2422,0.2354,0.2351,0.2389,0.2354,0.2347,0.2328,0.2302,0.2298,0.2309,0.2308,0.2277,0.2275,0.2272,0.2285,0.2262,0.2261,0.226,0.2258,0.2259,0.226,0,0,0,0,0,0,0.2434,0.2426,0.2356,0.2387,0.2379,0.2352,0.2332,0.2327,0.2321,0.2298,0.2294,0.2309,0.2277,0.2274,0.2269,0.2283,0.226,0.2259,0.2258,0.2259,0.2259,0.2296,0,0,0,0,0,0,0.2436,0.2426,0.2419,0.2387,0.2377,0.2345,0.2332,0.2326,0.2319,0.2317,0.2296,0.2293,0.2277,0.2271,0.2268,0.2281,0.2258,0.2257,0.2258,0.2259,0.2294,0.2298,0.2302,0,0,0,0,0,0.244,0.2422,0.2418,0.2411,0.2366,0.2346,0.2341,0.2322,0.2319,0.2317,0.2305,0.2293,0.2276,0.227,0.2267,0.2279,0.2256,0.2258,0.2259,0.2292,0.2297,0.2301,0,0,0,0,0,0,0.245,0.2417,0.2412,0.2384,0.2372,0.2342,0.2336,0.2328,0.2316,0.2316,0.2297,0.2293,0.2296,0.2283,0.2276,0.2283,0.2266,0.2267,0.2293,0.2297,0.2301,0.2308,0.2257,0,0,0,0,0,0.2453,0.2433,0.241,0.2388,0.2385,0.2365,0.2356,0.2346,0.233,0.2324,0.2309,0.2299,0.2298,0.2294,0.2286,0.2286,0.23,0.2294,0.2297,0.2301,0.2305,0.2351,0.2359,0.2264,0.2264,0.2264,0,0,0.245,0.243,0.2418,0.2391,0.2379,0.237,0.2359,0.2347,0.2343,0.2324,0.2314,0.2312,0.2302,0.2304,0.2304,0.2294,0.2335,0.2302,0.2305,0.2308,0.2353,0.2362,0.2371,0.2265,0.2265,0.2265,0,0,0.2436,0.2421,0.2404,0.2398,0.2385,0.2376,0.2377,0.2356,0.2352,0.2344,0.2338,0.2346,0.2327,0.2331,0.2329,0.235,0.2356,0.2347,0.2369,0.2414,0.2422,0.243,0.2461,0.2471,0.2347,0.2347,0.2347,0,0.2438,0.2406,0.2399,0.2388,0.2383,0.2382,0.2373,0.237,0.235,0.2358,0.2345,0.2352,0.2342,0.2364,0.2368,0.236,0.2382,0.2352,0.242,0.2428,0.2435,0.2465,0.2476,0.2349,0.2349,0.2348,0.2348,0,0.2412,0.2395,0.2387,0.2373,0.2374,0.2364,0.2367,0.2373,0.2372,0.2372,0.2392,0.2386,0.2394,0.2395,0.2384,0.2431,0.243,0.2423,0.2411,0.2447,0.2476,0.2487,0.2352,0.2351,0.235,0.235,0,0,0.2383,0.2371,0.2367,0.2363,0.2365,0.2359,0.2375,0.2385,0.2403,0.2402,0.2426,0.243,0.2442,0.2442,0.2442,0.2474,0.2541,0.247,0.2471,0.2505,0.2638,0.2569,0.2574,0.2552,0.2554,0.2556,0.2638,0,0.2362,0.2342,0.2344,0.2333,0.2325,0.2346,0.2361,0.2381,0.2401,0.2427,0.2451,0.2469,0.2457,0.2469,0.2503,0.2534,0.257,0.2518,0.2594,0.2596,0.2534,0.2584,0.2452,0.2508,0.2649,0.265,0.2652,0,0.2322,0.2319,0.2307,0.2315,0.2317,0.2318,0.2357,0.2369,0.2425,0.2446,0.2488,0.2507,0.2558,0.2539,0.2624,0.2594,0.262,0.2641,0.2644,0.2574,0.2547,0.2494,0.2522,0.246,0.2668,0.2666,0.2665,0,0.2291,0.2283,0.2276,0.2276,0.2296,0.2306,0.2322,0.2374,0.2398,0.2467,0.2498,0.2561,0.2594,0.2647,0.2687,0.2667,0.2778,0.2756,0.272,0.2715,0.2612,0.2594,0.259,0.2822,0.2822,0.2821,0.2821,0,0.2249,0.2238,0.226,0.2255,0.2255,0.2285,0.2303,0.2339,0.2404,0.2444,0.2504,0.2551,0.2625,0.2689,0.272,0.2755,0.2811,0.2736,0.2737,0.2619,0.2602,0.2549,0.2532,0.2825,0.2824,0.2823,0.2823,0,0.22,0.2212,0.2202,0.2229,0.2234,0.2235,0.2274,0.2304,0.237,0.2429,0.2456,0.2562,0.2645,0.271,0.2802,0.2787,0.2748,0.2829,0.2676,0.2657,0.2527,0.2516,0.2436,0.2354,0.2796,0.2794,0.2794,0,0.2168,0.2162,0.2176,0.2181,0.2188,0.2198,0.2219,0.2276,0.2322,0.2431,0.2469,0.2567,0.2624,0.273,0.2732,0.2774,0.2717,0.2669,0.2595,0.251,0.2502,0.2415,0.2345,0.2482,0.2478,0.2475,0.2473,0,0.2125,0.2134,0.214,0.2142,0.2153,0.2155,0.2192,0.2215,0.2301,0.235,0.2442,0.2494,0.2587,0.2566,0.2605,0.2614,0.2517,0.261,0.2571,0.2295,0.2153,0.2077,0.2437,0.2448,0.245,0.2452,0.2454,0.2455,0.2102,0.209,0.2104,0.2097,0.2108,0.2105,0.2078,0.2137,0.2164,0.2202,0.2335,0.2345,0.2398,0.2422,0.2422,0.2325,0.2339,0.2247,0.2257,0.2189,0.2048,0.2343,0.232,0.2321,0.2323,0.2324,0.2325,0,0.2057,0.2055,0.2061,0.2035,0.2014,0.2037,0.2055,0.2017,0.2002,0.2063,0.2099,0.2109,0.2087,0.2128,0.2086,0.1993,0.1894,0.1946,0.1803,0.1764,0.2074,0.1997,0.1842,0.1843,0.1843,0.1843,0.1843,0.1843,0.2037,0.2013,0.2006,0.1942,0.1926,0.1844,0.1826,0.179,0.1799,0.1751,0.1731,0.1779,0.1903,0.1931,0.1848,0.1788,0.1648,0.1551,0.1578,0.1816,0.1844,0.1872,0.1795,0.1601,0.16,0.1157,0.1153,0.1151]},{"header":{"parameterUnit":"m.s-1","parameterCategory":2,"la1":30.2991,"la2":30.254,"lo1":-89.0895,"lo2":-89.0444,"dy":0.0017,"dx":0.0017,"nx":28,"ny":28,"refTime":"2024-12-25T09:00:00:Z","depth":"0","parameterNumber":3,"parameterNumberName":"V-component_of_CURRENTS"},"data":[0,0,0,0,0,0,0,0,0,0,0,0,0,0,0,0,0,0,0,0,0,0,0,0,0,0,0,0,0,0,0,0,0,0,0,0,0,0,0,0,0,0,0,0,0,0,0,0,0,0,0,0,0,0,0,0,0,0,-0.0184,-0.0184,0,-0.0226,-0.0227,-0.0227,-0.0268,-0.0268,-0.0269,-0.0269,-0.0335,-0.0336,-0.0337,0,0,0,0,0,0,0,0,0,0,0,0,0,-0.0149,-0.0149,-0.0184,-0.0184,-0.0185,-0.0226,-0.0227,-0.0228,-0.0268,-0.0268,-0.0269,-0.0269,-0.0334,-0.0336,-0.0338,0,0,0,0,0,0,0,0,0,0,0,0,0,-0.0176,-0.0149,-0.0184,-0.0209,-0.0211,-0.0226,-0.0227,-0.0228,-0.0268,-0.0268,-0.0269,-0.0269,-0.0334,-0.0336,-0.0338,-0.0339,0,0,-0.0344,-0.0345,0,0,0,0,0,0,0,0,-0.0175,-0.0178,-0.0205,-0.0207,-0.021,-0.0241,-0.0239,-0.0266,-0.0268,-0.0248,-0.0269,-0.027,-0.0304,-0.0309,-0.0317,-0.0342,-0.0345,-0.0344,-0.0346,-0.0346,-0.0347,0,0,0,0,0,0,0,-0.0173,-0.0176,-0.0202,-0.0205,-0.0208,-0.0221,-0.0226,-0.0244,-0.0274,-0.025,-0.0252,-0.0254,-0.0306,-0.0315,-0.0319,-0.0346,-0.0344,-0.0346,-0.0347,-0.0348,-0.0367,-0.0366,0,0,0,0,0,0,-0.0163,-0.0174,-0.0201,-0.0203,-0.0192,-0.0221,-0.0227,-0.0232,-0.0273,-0.0279,-0.0254,-0.0256,-0.0311,-0.0317,-0.0321,-0.0313,-0.0346,-0.0348,-0.035,-0.0367,-0.0367,-0.0366,0,0,0,0,0,0,-0.0162,-0.0165,-0.0199,-0.0188,-0.0193,-0.0221,-0.0227,-0.0232,-0.0239,-0.0276,-0.0283,-0.0255,-0.0312,-0.0319,-0.0333,-0.0317,-0.0349,-0.0351,-0.0368,-0.0367,-0.0366,-0.0305,0,0,0,0,0,0,-0.0161,-0.0165,-0.0165,-0.0188,-0.0194,-0.0196,-0.0226,-0.0233,-0.0239,-0.0242,-0.0279,-0.0286,-0.0313,-0.0329,-0.0335,-0.032,-0.0353,-0.0369,-0.0368,-0.0366,-0.0308,-0.0302,-0.0297,0,0,0,0,0,-0.016,-0.015,-0.0165,-0.0168,-0.0193,-0.0195,-0.0199,-0.0222,-0.0238,-0.0233,-0.0262,-0.0285,-0.0324,-0.0331,-0.0337,-0.0323,-0.037,-0.0368,-0.0367,-0.0311,-0.0303,-0.0297,0,0,0,0,0,0,-0.0133,-0.0154,-0.017,-0.0168,-0.0178,-0.0202,-0.0199,-0.0215,-0.0234,-0.024,-0.0278,-0.0287,-0.0295,-0.0315,-0.0321,-0.0323,-0.0349,-0.0349,-0.0304,-0.0298,-0.0292,-0.0279,-0.0355,0,0,0,0,0,-0.0127,-0.0128,-0.0149,-0.0146,-0.0149,-0.0174,-0.0179,-0.0193,-0.0213,-0.0222,-0.0247,-0.0273,-0.0292,-0.03,-0.0321,-0.0321,-0.0338,-0.0315,-0.0309,-0.0304,-0.0297,-0.0317,-0.0313,-0.036,-0.036,-0.036,0,0,-0.0115,-0.0127,-0.0128,-0.014,-0.0152,-0.0146,-0.0178,-0.0179,-0.0174,-0.0225,-0.0226,-0.0257,-0.0289,-0.0292,-0.0296,-0.0306,-0.0296,-0.0302,-0.0297,-0.0294,-0.0315,-0.031,-0.0306,-0.0359,-0.0359,-0.0359,0,0,-0.0085,-0.0102,-0.0092,-0.0096,-0.0108,-0.0121,-0.0117,-0.0137,-0.0147,-0.0153,-0.0189,-0.0207,-0.0233,-0.0252,-0.0265,-0.0239,-0.0269,-0.0245,-0.0202,-0.022,-0.0217,-0.0214,-0.0214,-0.0211,-0.0237,-0.0237,-0.0237,0,-0.0072,-0.0063,-0.0086,-0.0075,-0.0073,-0.0105,-0.0088,-0.0098,-0.012,-0.0123,-0.0144,-0.0184,-0.0213,-0.0217,-0.021,-0.0226,-0.0238,-0.0225,-0.0213,-0.0211,-0.0209,-0.0209,-0.0208,-0.0234,-0.0234,-0.0234,-0.0234,0,-0.0033,-0.0026,-0.0017,-0.0017,-0.0016,-0.0005,-0.0022,-0.0023,-0.0042,-0.0058,-0.007,-0.0112,-0.0134,-0.0145,-0.0172,-0.0166,-0.0178,-0.0208,-0.0229,-0.02,-0.0203,-0.0202,-0.0229,-0.023,-0.0231,-0.0232,0,0,0.0002,0.0008,0.0013,0.0023,0.0016,0.0024,0.0034,0.0034,0.0045,0.0014,0.0024,-0.0017,-0.0046,-0.0063,-0.0098,-0.0114,-0.0108,-0.0148,-0.0151,-0.0146,-0.0135,-0.0131,-0.0131,-0.0139,-0.0139,-0.0139,-0.0136,0,0.0039,0.0074,0.0066,0.0103,0.012,0.0098,0.0112,0.0107,0.0093,0.0095,0.0049,0.0038,-0.0012,-0.0023,-0.0045,-0.0094,-0.0106,-0.0105,-0.0166,-0.0167,-0.0167,-0.013,-0.0106,-0.0101,-0.0136,-0.0136,-0.0136,0,0.0086,0.0101,0.0141,0.0161,0.0167,0.0181,0.0197,0.0206,0.0195,0.0183,0.016,0.0121,0.0098,0.0044,-0.0014,-0.0012,-0.0065,-0.0106,-0.0108,-0.0127,-0.0163,-0.014,-0.0099,-0.0183,-0.0135,-0.0135,-0.0135,0,0.013,0.0159,0.0192,0.0199,0.0213,0.0227,0.0233,0.0231,0.0251,0.0237,0.0247,0.02,0.0187,0.0112,0.003,0.0006,-0.0032,-0.0079,-0.0124,-0.0124,-0.0126,-0.0126,-0.0173,-0.0124,-0.0124,-0.0124,-0.0124,0,0.0177,0.0209,0.0214,0.0235,0.0275,0.0268,0.0308,0.0307,0.032,0.0357,0.0294,0.0321,0.0201,0.0162,0.0069,-0.0006,-0.0002,-0.0103,-0.0122,-0.0102,-0.01,-0.0193,-0.026,-0.0124,-0.0124,-0.0124,-0.0124,0,0.0226,0.023,0.0271,0.0289,0.0297,0.0325,0.0358,0.0392,0.0391,0.044,0.044,0.042,0.0375,0.026,0.0155,0.0059,-0.008,-0.0062,-0.0018,-0.0032,-0.0166,-0.023,-0.0306,-0.037,-0.0111,-0.011,-0.011,0,0.0256,0.028,0.031,0.0335,0.0345,0.038,0.0412,0.0425,0.0471,0.0515,0.0555,0.0527,0.0536,0.0393,0.0218,0.0066,-0.0053,-0.0028,-0.0081,-0.0154,-0.024,-0.0289,-0.0342,-0.0053,-0.0052,-0.0052,-0.0052,0,0.0311,0.0316,0.0344,0.0389,0.0426,0.0472,0.052,0.057,0.0603,0.0656,0.0738,0.0752,0.0623,0.0494,0.0271,0.0158,-0.0094,-0.0024,-0.0116,-0.0206,-0.0246,-0.0322,-0.0064,-0.0048,-0.0048,-0.0048,-0.0048,-0.0049,0.035,0.0371,0.04,0.0442,0.0492,0.0558,0.0601,0.0679,0.0767,0.085,0.0877,0.0909,0.0712,0.0426,0.0265,-0.0027,-0.0072,-0.0132,-0.0203,-0.0244,-0.0311,-0.0033,-0.0033,-0.0034,-0.0034,-0.0034,-0.0034,0,0.0386,0.0404,0.0452,0.05,0.0555,0.0573,0.0671,0.0724,0.0839,0.0934,0.1005,0.0938,0.0704,0.0431,0.0047,-0.0166,-0.0266,-0.0289,-0.0358,-0.0407,-0.0161,-0.0165,-0.0173,-0.0173,-0.0172,-0.0172,-0.0172,-0.0172,0.0407,0.0441,0.0454,0.0534,0.0577,0.0646,0.07,0.0802,0.0883,0.099,0.1019,0.1033,0.086,0.0216,-0.0221,-0.0332,-0.0518,-0.0541,-0.0657,-0.0487,-0.0478,-0.0469,-0.0486,-0.0562,-0.0562,-0.0865,-0.0868,-0.087]}],[{"header":{"parameterUnit":"m.s-1","parameterCategory":2,"la1":30.2991,"la2":30.254,"lo1":-89.0895,"lo2":-89.0444,"dy":0.0017,"dx":0.0017,"nx":28,"ny":28,"refTime":"2024-12-25T09:00:00:Z","depth":"2","parameterNumber":2,"parameterNumberName":"U-component_of_CURRENTS"},"data":[0,0,0,0,0,0,0,0,0,0,0,0,0,0,0,0,0,0,0,0,0,0,0,0,0,0,0,0,0,0,0,0,0,0,0,0,0,0,0,0,0,0,0,0,0,0,0,0,0,0,0,0,0,0,0,0,0,0,0.2039,0.2039,0,0.2026,0.2025,0.2025,0.2025,0.2025,0.2025,0.2026,0.2033,0.2032,0.2032,0,0,0,0,0,0,0,0,0,0,0,0,0,0.2052,0.2052,0.2039,0.2039,0.2039,0.2026,0.2025,0.2025,0.2025,0.2025,0.2025,0.2026,0.2033,0.2032,0.2032,0,0,0,0,0,0,0,0,0,0,0,0,0,0.2042,0.2052,0.2039,0.2039,0.2039,0.2026,0.2025,0.2025,0.2025,0.2025,0.2025,0.2026,0.2033,0.2032,0.2032,0.2022,0,0,0.2032,0.2032,0,0,0,0,0,0,0,0,0.2043,0.2041,0.2039,0.2039,0.2039,0.2029,0.2032,0.2025,0.2024,0.2028,0.2026,0.2026,0.2034,0.2034,0.2027,0.2022,0.2022,0.2032,0.2032,0.2032,0.2032,0,0,0,0,0,0,0,0.2043,0.2042,0.2032,0.2039,0.2039,0.2035,0.2034,0.2031,0.2028,0.2028,0.2028,0.2029,0.2034,0.2028,0.2028,0.2023,0.2032,0.2032,0.2032,0.2031,0.2084,0.2086,0,0,0,0,0,0,0.2048,0.2043,0.2033,0.2032,0.2044,0.2034,0.2033,0.203,0.2027,0.2028,0.2029,0.2029,0.2028,0.2028,0.2028,0.2059,0.2032,0.2031,0.2031,0.2083,0.2084,0.2086,0,0,0,0,0,0,0.2048,0.2047,0.2033,0.2038,0.2037,0.2034,0.203,0.203,0.2041,0.2028,0.2028,0.2044,0.2028,0.2028,0.204,0.2058,0.2031,0.2031,0.2081,0.2083,0.2085,0.2094,0,0,0,0,0,0,0.2049,0.2047,0.2048,0.2039,0.2037,0.2032,0.203,0.2029,0.2041,0.2042,0.2041,0.2041,0.2028,0.2041,0.204,0.2057,0.2031,0.2079,0.2082,0.2085,0.2092,0.2096,0.21,0,0,0,0,0,0.2049,0.2039,0.2048,0.2047,0.2037,0.2032,0.2031,0.2029,0.2041,0.2043,0.2049,0.2042,0.2059,0.2041,0.204,0.2058,0.2078,0.2081,0.2084,0.209,0.2095,0.21,0,0,0,0,0,0,0.2042,0.2038,0.2047,0.2037,0.2042,0.2033,0.2046,0.2041,0.2046,0.2054,0.2048,0.2048,0.2071,0.2068,0.2048,0.2086,0.2072,0.2076,0.2077,0.2082,0.2086,0.2097,0.2031,0,0,0,0,0,0.2043,0.2044,0.204,0.204,0.2054,0.2058,0.2059,0.205,0.2053,0.2056,0.2055,0.2066,0.2081,0.2084,0.2091,0.2101,0.2115,0.2119,0.2123,0.2126,0.2138,0.2169,0.2177,0.2097,0.2097,0.2097,0,0,0.2045,0.2043,0.2045,0.2041,0.206,0.206,0.2061,0.2066,0.2064,0.2056,0.2069,0.2079,0.209,0.2104,0.2114,0.2103,0.2159,0.213,0.2133,0.2143,0.2174,0.2181,0.2188,0.2099,0.2099,0.2099,0,0,0.2043,0.2057,0.2058,0.2057,0.2069,0.2072,0.2079,0.2077,0.2086,0.209,0.2096,0.2115,0.2128,0.2133,0.2141,0.2176,0.2183,0.2188,0.2209,0.2238,0.2245,0.2251,0.2282,0.2291,0.2185,0.2185,0.2185,0,0.205,0.2041,0.2058,0.2054,0.206,0.2084,0.2082,0.209,0.2083,0.2099,0.2101,0.2142,0.2143,0.2172,0.2186,0.2183,0.2207,0.2182,0.2242,0.2248,0.2254,0.2285,0.2294,0.2186,0.2185,0.2185,0.2185,0,0.2034,0.2035,0.2047,0.2056,0.2061,0.2067,0.2081,0.2097,0.2121,0.2123,0.2166,0.217,0.2196,0.2204,0.2205,0.2251,0.2258,0.2244,0.2223,0.2262,0.2293,0.2302,0.2187,0.2186,0.2186,0.2186,0,0,0.2022,0.2037,0.2035,0.2049,0.206,0.2065,0.209,0.2118,0.2152,0.2158,0.2197,0.2224,0.2239,0.2252,0.2256,0.2282,0.2338,0.2286,0.2287,0.2307,0.2417,0.2347,0.2351,0.2337,0.2338,0.234,0.2422,0,0.2015,0.2007,0.2011,0.2023,0.2036,0.2065,0.209,0.2112,0.2154,0.2195,0.2222,0.2267,0.2254,0.2282,0.2301,0.2341,0.2364,0.2318,0.2386,0.2388,0.2312,0.2359,0.2156,0.2206,0.2431,0.2433,0.2434,0,0.1983,0.1988,0.1991,0.2029,0.2042,0.2049,0.2117,0.2136,0.2199,0.2236,0.2278,0.2309,0.236,0.2341,0.2415,0.2391,0.2408,0.2428,0.2431,0.2371,0.2336,0.2205,0.2215,0.2449,0.2448,0.2447,0.2446,0,0.1959,0.1973,0.1985,0.1988,0.2028,0.2053,0.2087,0.2148,0.2187,0.2273,0.2314,0.2372,0.2416,0.245,0.2478,0.2468,0.2549,0.2535,0.2484,0.248,0.2323,0.2301,0.258,0.258,0.2579,0.2579,0.2579,0,0.1935,0.1942,0.198,0.1981,0.2015,0.2046,0.2107,0.215,0.222,0.2269,0.2334,0.238,0.2451,0.2493,0.2507,0.2522,0.257,0.2505,0.2499,0.232,0.2298,0.2518,0.251,0.2582,0.2582,0.2581,0.258,0,0.1897,0.192,0.1933,0.1979,0.2002,0.2022,0.2106,0.2147,0.2226,0.229,0.2323,0.2415,0.2483,0.2518,0.2588,0.256,0.2582,0.2563,0.235,0.2317,0.2492,0.2484,0.2551,0.2549,0.2548,0.2546,0.2545,0,0.1877,0.1886,0.1922,0.1938,0.1961,0.2014,0.2053,0.2137,0.2179,0.2298,0.2313,0.2414,0.2437,0.2504,0.2499,0.251,0.2551,0.2326,0.2263,0.2503,0.2492,0.2485,0.2479,0.2067,0.2062,0.2058,0.2055,0,0.1851,0.1866,0.1886,0.1905,0.194,0.198,0.2039,0.2061,0.2158,0.2196,0.2243,0.2275,0.2356,0.2278,0.2302,0.2282,0.2311,0.2247,0.2557,0.2098,0.2051,0.2038,0.2047,0.2019,0.2023,0.2026,0.2027,0.2029,0.1841,0.1836,0.186,0.1875,0.1913,0.1918,0.1917,0.196,0.198,0.1991,0.2094,0.2066,0.2113,0.205,0.199,0.1967,0.214,0.2044,0.2055,0.207,0.1992,0.1944,0.1878,0.1881,0.1883,0.1885,0.1887,0,0.1798,0.1807,0.1827,0.1825,0.1823,0.187,0.1887,0.1844,0.1797,0.183,0.1827,0.1687,0.1634,0.1684,0.16,0.1616,0.1588,0.1546,0.1485,0.1522,0.1555,0.1449,0.1192,0.119,0.1188,0.1186,0,0,0.1776,0.1761,0.1754,0.1728,0.174,0.1695,0.1677,0.1603,0.1586,0.1492,0.1456,0.1554,0.1633,0.1384,0.1362,0.1258,0.1376,0.1208,0.177,0.1736,0.1765,0.1853,0.1733,0,0,0,0,0]},{"header":{"parameterUnit":"m.s-1","parameterCategory":2,"la1":30.2991,"la2":30.254,"lo1":-89.0895,"lo2":-89.0444,"dy":0.0017,"dx":0.0017,"nx":28,"ny":28,"refTime":"2024-12-25T09:00:00:Z","depth":"2","parameterNumber":3,"parameterNumberName":"V-component_of_CURRENTS"},"data":[0,0,0,0,0,0,0,0,0,0,0,0,0,0,0,0,0,0,0,0,0,0,0,0,0,0,0,0,0,0,0,0,0,0,0,0,0,0,0,0,0,0,0,0,0,0,0,0,0,0,0,0,0,0,0,0,0,0,0.0076,0.0075,0,0.0023,0.0023,0.0022,-0.0005,-0.0005,-0.0005,-0.0005,-0.0055,-0.0056,-0.0058,0,0,0,0,0,0,0,0,0,0,0,0,0,0.0128,0.0128,0.0076,0.0075,0.0074,0.0023,0.0023,0.0022,-0.0005,-0.0005,-0.0005,-0.0005,-0.0054,-0.0056,-0.0058,0,0,0,0,0,0,0,0,0,0,0,0,0,0.0093,0.0127,0.0076,0.0055,0.0053,0.0023,0.0023,0.0022,-0.0005,-0.0005,-0.0005,-0.0005,-0.0054,-0.0056,-0.0058,-0.0072,0,0,-0.0064,-0.0065,0,0,0,0,0,0,0,0,0.0095,0.0091,0.0059,0.0057,0.0054,0.0016,0.0023,-0.0009,-0.0005,0.0016,-0.0005,-0.0005,-0.003,-0.0034,-0.0045,-0.0074,-0.0076,-0.0064,-0.0066,-0.0066,-0.0067,0,0,0,0,0,0,0,0.0098,0.0093,0.0054,0.0058,0.0055,0.0041,0.0036,0.0016,-0.0007,0.0014,0.0012,0.0008,-0.0032,-0.0043,-0.0047,-0.0077,-0.0064,-0.0066,-0.0067,-0.0068,-0.0121,-0.0121,0,0,0,0,0,0,0.0107,0.0095,0.0056,0.0053,0.0076,0.004,0.0034,0.0028,-0.0007,-0.0012,0.0008,0.0007,-0.004,-0.0044,-0.0049,-0.0054,-0.0066,-0.0068,-0.007,-0.0121,-0.0121,-0.0121,0,0,0,0,0,0,0.0108,0.0103,0.0058,0.0074,0.0067,0.0039,0.0032,0.0027,0.0012,-0.0012,-0.0017,-0.0002,-0.004,-0.0046,-0.0061,-0.0057,-0.0069,-0.0071,-0.012,-0.0121,-0.0121,-0.0074,0,0,0,0,0,0,0.011,0.0104,0.0102,0.0074,0.0066,0.0044,0.0032,0.0026,0.001,0.0008,-0.0022,-0.0026,-0.004,-0.0058,-0.0063,-0.006,-0.0073,-0.012,-0.0121,-0.0121,-0.0075,-0.0072,-0.007,0,0,0,0,0,0.0112,0.011,0.0102,0.0097,0.0064,0.0044,0.0039,0.0019,0.0009,0.0005,-0.0012,-0.0026,-0.0064,-0.0059,-0.0065,-0.0063,-0.012,-0.012,-0.0121,-0.0076,-0.0073,-0.007,0,0,0,0,0,0,0.0128,0.0106,0.0097,0.0088,0.0069,0.004,0.003,0.0018,-0.0001,-0.0002,-0.0026,-0.0031,-0.0044,-0.0063,-0.0058,-0.0081,-0.0095,-0.0097,-0.0059,-0.0056,-0.0054,-0.0042,-0.0074,0,0,0,0,0,0.0132,0.0125,0.0102,0.0093,0.0083,0.0056,0.0044,0.0034,0.0014,0.0006,-0.0014,-0.0035,-0.0052,-0.006,-0.0079,-0.0091,-0.0106,-0.0095,-0.0093,-0.009,-0.0086,-0.01,-0.0098,-0.0122,-0.0122,-0.0122,0,0,0.0133,0.0122,0.0116,0.0096,0.0076,0.007,0.0048,0.0034,0.0034,0.0004,-0.0007,-0.0028,-0.0054,-0.0064,-0.0072,-0.0077,-0.0093,-0.0091,-0.0088,-0.0086,-0.01,-0.0097,-0.0095,-0.0123,-0.0123,-0.0123,0,0,0.0137,0.0122,0.0119,0.011,0.0091,0.0077,0.0075,0.0049,0.0041,0.0028,0.0009,-0.0006,-0.0039,-0.0048,-0.0059,-0.0056,-0.008,-0.0069,-0.0044,-0.0056,-0.0054,-0.0052,-0.0071,-0.0071,-0.0066,-0.0065,-0.0065,0,0.0142,0.0136,0.0115,0.0114,0.0111,0.0083,0.0086,0.0073,0.0049,0.005,0.0031,-0.0006,-0.0029,-0.0031,-0.0033,-0.0049,-0.0064,-0.0049,-0.0051,-0.005,-0.0049,-0.0068,-0.0069,-0.0063,-0.0063,-0.0064,-0.0064,0,0.0146,0.0144,0.014,0.0133,0.0128,0.0124,0.011,0.0106,0.009,0.0079,0.0068,0.0035,0.0016,0.0003,-0.0016,-0.0018,-0.0034,-0.0045,-0.0054,-0.0043,-0.0065,-0.0066,-0.006,-0.0061,-0.0061,-0.0062,0,0,0.0153,0.0145,0.0146,0.0153,0.0143,0.0141,0.0144,0.0142,0.0153,0.0122,0.013,0.0092,0.0073,0.0059,0.0034,0.0018,0.0008,-0.0009,-0.0011,-0.0018,-0.0025,-0.0028,-0.003,-0.0002,-0.0002,-0.0002,-0.0044,0,0.0163,0.0174,0.0168,0.0183,0.0186,0.0178,0.0187,0.0188,0.0178,0.018,0.0147,0.0137,0.0096,0.0087,0.0067,0.0027,0.0006,0.002,-0.0043,-0.0045,-0.0041,-0.0031,-0.0009,-0.0043,-0.0046,-0.0046,-0.0046,0,0.0173,0.0182,0.0197,0.0218,0.0219,0.0227,0.0247,0.0254,0.0254,0.0247,0.0232,0.0203,0.0178,0.0137,0.0075,0.0086,0.0032,-0.0006,-0.0009,-0.0027,-0.005,-0.0056,-0.0046,-0.0049,-0.0049,-0.0049,-0.0049,0,0.0193,0.0206,0.0222,0.0227,0.0242,0.0255,0.0264,0.0274,0.0297,0.0289,0.03,0.026,0.0247,0.0177,0.0095,0.0084,0.0027,0.0002,-0.0054,-0.0055,-0.0056,-0.0057,-0.0048,-0.0048,-0.0048,-0.0047,-0.0047,0,0.0209,0.0224,0.0233,0.0245,0.0279,0.028,0.0316,0.0324,0.0348,0.0386,0.0335,0.0357,0.0256,0.0212,0.0121,0.0038,0.0045,-0.0046,-0.0062,-0.0041,-0.004,-0.0062,-0.0063,-0.0049,-0.0049,-0.0048,-0.0048,0,0.0222,0.0226,0.0251,0.0274,0.0287,0.0311,0.0357,0.0391,0.0401,0.045,0.045,0.0434,0.0378,0.0273,0.0168,0.0084,-0.0007,-0.0044,-0.0014,-0.0026,-0.0091,-0.009,-0.0111,-0.0112,-0.0112,-0.0112,-0.0113,0,0.0226,0.0239,0.0275,0.0301,0.0312,0.0348,0.0385,0.0413,0.046,0.0505,0.0542,0.0506,0.0496,0.0344,0.0192,0.0039,0.0006,-0.0053,-0.0075,-0.0083,-0.0096,-0.0094,-0.0092,-0.0064,-0.0064,-0.0063,-0.0063,0,0.0242,0.0253,0.0278,0.0331,0.0372,0.0421,0.0476,0.0526,0.0572,0.0615,0.0673,0.0668,0.054,0.0407,0.0199,0.0094,-0.0027,-0.0055,-0.0063,-0.0047,-0.004,-0.0052,-0.0052,-0.0062,-0.0062,-0.0062,-0.0062,-0.0062,0.0258,0.0277,0.0315,0.0366,0.0418,0.0489,0.0534,0.0609,0.0688,0.0754,0.0761,0.075,0.0608,0.0352,0.0181,-0.0009,-0.0005,-0.0086,-0.0085,-0.0085,-0.0068,-0.0061,-0.0085,-0.0085,-0.0085,-0.0086,-0.0086,0,0.028,0.0304,0.0351,0.0412,0.0468,0.0496,0.0596,0.0641,0.0735,0.0794,0.0828,0.069,0.056,0.0382,0.0113,-0.0047,-0.0063,-0.0107,-0.009,-0.009,-0.009,-0.0073,-0.0091,-0.0092,-0.0093,-0.0093,0,0,0.0294,0.0335,0.0356,0.044,0.0487,0.0561,0.0617,0.069,0.0747,0.0792,0.0793,0.0795,0.0608,0.0409,0.0205,0.0051,0.0008,0.0017,0.0041,0.0084,0.0086,-0.0055,-0.0025,0,0,0,0,0]}],[{"header":{"parameterUnit":"m.s-1","parameterCategory":2,"la1":30.2991,"la2":30.254,"lo1":-89.0895,"lo2":-89.0444,"dy":0.0017,"dx":0.0017,"nx":28,"ny":28,"refTime":"2024-12-25T09:00:00:Z","depth":"4","parameterNumber":2,"parameterNumberName":"U-component_of_CURRENTS"},"data":[0,0,0,0,0,0,0,0,0,0,0,0,0,0,0,0,0,0,0,0,0,0,0,0,0,0,0,0,0,0,0,0,0,0,0,0,0,0,0,0,0,0,0,0,0,0,0,0,0,0,0,0,0,0,0,0,0,0,0.1116,0.1117,0,0.1176,0.1176,0.1177,0.1218,0.1219,0.1219,0.122,0.1274,0.1275,0.1276,0,0,0,0,0,0,0,0,0,0,0,0,0,0.1025,0.1026,0.1116,0.1117,0.1118,0.1176,0.1176,0.1177,0.1218,0.1219,0.1219,0.122,0.1274,0.1275,0.1276,0,0,0,0,0,0,0,0,0,0,0,0,0,0.1071,0.1027,0.1116,0.1147,0.115,0.1176,0.1176,0.1177,0.1218,0.1219,0.122,0.122,0.1273,0.1275,0.1276,0.1271,0,0,0.1281,0.1281,0,0,0,0,0,0,0,0,0.1068,0.1074,0.1141,0.1145,0.1149,0.1192,0.1164,0.1209,0.1218,0.119,0.122,0.1221,0.1247,0.125,0.1258,0.1274,0.1276,0.1281,0.1282,0.1282,0.1283,0,0,0,0,0,0,0,0.1065,0.1072,0.1138,0.1142,0.1147,0.1153,0.1161,0.1173,0.1212,0.1193,0.1197,0.1206,0.1249,0.1256,0.1259,0.1277,0.1281,0.1282,0.1283,0.1284,0.1368,0.1369,0,0,0,0,0,0,0.1061,0.1069,0.1136,0.114,0.1112,0.1155,0.1163,0.1176,0.1212,0.1219,0.1205,0.1208,0.1253,0.1257,0.1261,0.1324,0.1282,0.1284,0.1285,0.1366,0.1368,0.1369,0,0,0,0,0,0,0.1059,0.1067,0.1134,0.1107,0.1116,0.1156,0.117,0.1177,0.1212,0.1222,0.1229,0.1237,0.1254,0.1259,0.1298,0.1324,0.1285,0.1286,0.1365,0.1367,0.1369,0.1406,0,0,0,0,0,0,0.1056,0.1066,0.1085,0.1107,0.1118,0.1166,0.117,0.1177,0.1216,0.1221,0.1251,0.1255,0.1255,0.1296,0.1299,0.1325,0.1287,0.1363,0.1366,0.1368,0.1403,0.1409,0.1414,0,0,0,0,0,0.1053,0.1073,0.1085,0.1094,0.1139,0.1168,0.1174,0.1203,0.1217,0.1237,0.126,0.1256,0.1314,0.1298,0.1302,0.1329,0.1362,0.1365,0.1368,0.14,0.1408,0.1414,0,0,0,0,0,0,0.1046,0.108,0.1094,0.1125,0.1153,0.1176,0.1201,0.1218,0.1252,0.1265,0.1271,0.1277,0.1321,0.1321,0.1303,0.1361,0.1338,0.1342,0.1361,0.1368,0.1374,0.1372,0.1288,0,0,0,0,0,0.1052,0.1078,0.1107,0.1136,0.1151,0.1181,0.1201,0.1222,0.1249,0.1267,0.1288,0.1312,0.1332,0.1348,0.1365,0.1395,0.1397,0.1416,0.1422,0.1426,0.1429,0.1455,0.1462,0.1379,0.1379,0.1379,0,0,0.1057,0.1081,0.1097,0.1137,0.1162,0.1187,0.1196,0.1236,0.1262,0.1266,0.1316,0.1334,0.1345,0.1381,0.14,0.1387,0.1453,0.143,0.1434,0.1434,0.1459,0.1467,0.1474,0.1381,0.1381,0.138,0,0,0.1071,0.1103,0.1127,0.1152,0.1196,0.1212,0.123,0.1269,0.1295,0.1338,0.1349,0.1385,0.1418,0.143,0.1438,0.1485,0.1482,0.1496,0.1522,0.1548,0.1555,0.1561,0.1578,0.1585,0.1498,0.1498,0.1498,0,0.1074,0.1111,0.1138,0.1166,0.1189,0.1226,0.1252,0.128,0.133,0.1352,0.1363,0.1426,0.1439,0.1474,0.1493,0.1497,0.151,0.1494,0.1554,0.156,0.1566,0.1582,0.159,0.15,0.15,0.15,0.15,0,0.1102,0.1136,0.1154,0.1198,0.1225,0.1259,0.1294,0.1333,0.137,0.1394,0.1453,0.1476,0.1512,0.1525,0.1523,0.1572,0.1568,0.1558,0.1534,0.1576,0.1591,0.1598,0.1503,0.1503,0.1502,0.1501,0,0,0.1092,0.1159,0.1168,0.1189,0.1247,0.1267,0.1317,0.1363,0.1398,0.1451,0.1494,0.1539,0.1561,0.1572,0.1584,0.1608,0.166,0.1605,0.1605,0.1617,0.1719,0.162,0.1618,0.1664,0.1665,0.1666,0.1715,0,0.1107,0.1153,0.1187,0.1233,0.1257,0.1303,0.134,0.1388,0.1434,0.1485,0.1523,0.157,0.1576,0.1603,0.1631,0.1654,0.168,0.1647,0.1681,0.1682,0.1585,0.1624,0.1671,0.172,0.1722,0.1723,0.1724,0,0.112,0.115,0.1194,0.1247,0.1263,0.1297,0.1363,0.1403,0.1474,0.1512,0.1569,0.1601,0.1658,0.1651,0.1717,0.17,0.1716,0.1728,0.173,0.1628,0.1596,0.167,0.1736,0.1735,0.1734,0.1733,0.1733,0,0.1088,0.1152,0.1187,0.1207,0.1272,0.1306,0.1347,0.1416,0.1455,0.1537,0.1574,0.1642,0.1686,0.1722,0.1761,0.1747,0.1822,0.1801,0.1726,0.1719,0.1776,0.1769,0.1842,0.1842,0.1842,0.1842,0.1842,0,0.1077,0.1106,0.1179,0.1195,0.1238,0.1293,0.1346,0.1399,0.1475,0.1514,0.1589,0.1626,0.1709,0.1759,0.1779,0.1777,0.1841,0.1735,0.1726,0.1792,0.1786,0.1781,0.1774,0.1844,0.1843,0.1843,0.1843,0,0.1032,0.1083,0.1121,0.1196,0.1224,0.1254,0.134,0.1372,0.1456,0.1511,0.1541,0.1637,0.17,0.1767,0.1831,0.179,0.1802,0.1785,0.1862,0.1856,0.1676,0.167,0.1695,0.1692,0.1689,0.1687,0.1685,0,0.1009,0.1029,0.1109,0.1132,0.1171,0.1228,0.1263,0.1354,0.1385,0.1499,0.1511,0.1612,0.1665,0.1675,0.1753,0.1788,0.1771,0.1759,0.1703,0.1673,0.1662,0.166,0.1658,0.1681,0.168,0.168,0.1679,0,0.0963,0.1004,0.1034,0.1082,0.1124,0.1158,0.1216,0.1229,0.1325,0.1416,0.1446,0.1486,0.1555,0.1609,0.1657,0.1675,0.1753,0.1731,0.1736,0.1684,0.1657,0.1648,0.1649,0.167,0.1671,0.1672,0.1673,0,0.0929,0.0937,0.0985,0.1017,0.1065,0.1071,0.1109,0.1143,0.1186,0.131,0.132,0.1429,0.1531,0.1551,0.1592,0.1609,0.1581,0.1518,0.1534,0.1544,0.1475,0.1418,0.1353,0,0,0,0,0,0.0891,0.089,0.0915,0.0936,0.0979,0.1008,0.1069,0.1109,0.1201,0.1187,0.125,0.1307,0.1366,0.1426,0.1417,0.1537,0.1593,0.1518,0.1529,0.162,0.1631,0.1564,0,0,0,0,0,0,0.0861,0.0883,0.0887,0.0865,0.0869,0.0899,0.0935,0.0996,0.0992,0.1098,0.114,0.1228,0.1312,0.1365,0.1394,0.1414,0.1393,0.1595,0.1592,0.1614,0.1624,0.1632,0.1568,0,0,0,0,0]},{"header":{"parameterUnit":"m.s-1","parameterCategory":2,"la1":30.2991,"la2":30.254,"lo1":-89.0895,"lo2":-89.0444,"dy":0.0017,"dx":0.0017,"nx":28,"ny":28,"refTime":"2024-12-25T09:00:00:Z","depth":"4","parameterNumber":3,"parameterNumberName":"V-component_of_CURRENTS"},"data":[0,0,0,0,0,0,0,0,0,0,0,0,0,0,0,0,0,0,0,0,0,0,0,0,0,0,0,0,0,0,0,0,0,0,0,0,0,0,0,0,0,0,0,0,0,0,0,0,0,0,0,0,0,0,0,0,0,0,0.0143,0.0143,0,0.0109,0.0108,0.0108,0.0098,0.0098,0.0098,0.0098,0.007,0.0069,0.0068,0,0,0,0,0,0,0,0,0,0,0,0,0,0.0184,0.0183,0.0143,0.0143,0.0142,0.0109,0.0108,0.0108,0.0098,0.0098,0.0098,0.0098,0.007,0.0069,0.0068,0,0,0,0,0,0,0,0,0,0,0,0,0,0.016,0.0183,0.0143,0.0133,0.0132,0.0109,0.0108,0.0108,0.0098,0.0098,0.0098,0.0099,0.0071,0.0069,0.0068,0.0055,0,0,0.0064,0.0063,0,0,0,0,0,0,0,0,0.0161,0.0159,0.0135,0.0134,0.0132,0.0107,0.0112,0.009,0.0098,0.0111,0.0098,0.0099,0.0083,0.008,0.0074,0.0054,0.0053,0.0064,0.0063,0.0062,0.0062,0,0,0,0,0,0,0,0.0163,0.016,0.013,0.0135,0.0133,0.0124,0.0121,0.0108,0.0097,0.011,0.0109,0.0104,0.0082,0.0075,0.0073,0.0052,0.0064,0.0063,0.0062,0.0061,0.0027,0.0027,0,0,0,0,0,0,0.0167,0.0161,0.0131,0.0129,0.0147,0.0123,0.012,0.0116,0.0097,0.0094,0.0104,0.0104,0.0077,0.0075,0.0072,0.0069,0.0062,0.0061,0.006,0.0027,0.0027,0.0027,0,0,0,0,0,0,0.0168,0.0165,0.0133,0.0144,0.0139,0.0122,0.0117,0.0115,0.0109,0.0092,0.0089,0.0101,0.0077,0.0074,0.0064,0.0068,0.006,0.0059,0.0028,0.0027,0.0027,0.0056,0,0,0,0,0,0,0.0169,0.0165,0.0164,0.0144,0.0139,0.0121,0.0117,0.0114,0.0105,0.0105,0.0088,0.0086,0.0077,0.0066,0.0063,0.0066,0.0058,0.0028,0.0027,0.0027,0.0055,0.0057,0.0058,0,0,0,0,0,0.0171,0.0167,0.0165,0.0161,0.0138,0.012,0.0117,0.0106,0.0105,0.0102,0.0093,0.0086,0.0062,0.0065,0.0061,0.0064,0.0028,0.0028,0.0027,0.0054,0.0056,0.0058,0,0,0,0,0,0,0.0182,0.0165,0.0162,0.0153,0.0139,0.0119,0.0114,0.0106,0.0096,0.0098,0.0085,0.0081,0.0074,0.0062,0.0066,0.0053,0.0044,0.0043,0.0066,0.0067,0.0069,0.0078,0.0057,0,0,0,0,0,0.0185,0.018,0.0161,0.0155,0.0149,0.0132,0.0124,0.0117,0.0104,0.01,0.0089,0.0078,0.0069,0.0064,0.0052,0.0044,0.0032,0.0043,0.0044,0.0046,0.005,0.0038,0.0039,0.0026,0.0026,0.0027,0,0,0.0186,0.0177,0.0173,0.0157,0.0147,0.0141,0.0128,0.0117,0.0117,0.0098,0.0095,0.0082,0.0067,0.0061,0.0057,0.0053,0.0041,0.0046,0.0047,0.0051,0.0038,0.0039,0.004,0.0026,0.0026,0.0026,0,0,0.0187,0.018,0.0176,0.0168,0.0154,0.0146,0.0144,0.0125,0.0122,0.0112,0.0103,0.0094,0.0075,0.007,0.0064,0.0066,0.0049,0.0059,0.0076,0.0065,0.0066,0.0067,0.0046,0.0045,0.0061,0.0061,0.0061,0,0.0191,0.0185,0.0172,0.0168,0.0167,0.0151,0.0151,0.0143,0.0124,0.0127,0.0115,0.0095,0.008,0.0082,0.0081,0.007,0.0057,0.0073,0.0068,0.0068,0.0069,0.0047,0.0046,0.0063,0.0062,0.0062,0.0062,0,0.0187,0.0187,0.0185,0.018,0.0176,0.0172,0.0163,0.0161,0.0154,0.0147,0.0143,0.012,0.0112,0.0102,0.0091,0.009,0.0077,0.0071,0.0066,0.0072,0.0049,0.0046,0.0064,0.0064,0.0064,0.0063,0,0,0.0187,0.0184,0.0184,0.0193,0.0185,0.0184,0.0188,0.0189,0.0202,0.0177,0.0187,0.0162,0.0151,0.0144,0.0128,0.0114,0.0099,0.0095,0.0094,0.008,0.0066,0.0055,0.0051,0.0094,0.0094,0.0094,0.0046,0,0.0191,0.0195,0.0192,0.0205,0.0209,0.0208,0.0218,0.022,0.0218,0.0222,0.0199,0.0198,0.0168,0.0166,0.0147,0.0116,0.0096,0.0112,0.0058,0.0056,0.005,0.005,0.0093,0.0045,0.0044,0.0044,0.0043,0,0.0188,0.0196,0.0207,0.0231,0.0235,0.0242,0.0268,0.0275,0.0279,0.0277,0.0268,0.025,0.0229,0.02,0.0146,0.0158,0.0114,0.0082,0.0079,0.006,0.0042,0.0038,0.0039,0.004,0.004,0.004,0.004,0,0.0197,0.021,0.0225,0.023,0.0248,0.0264,0.0278,0.0292,0.0314,0.0314,0.0323,0.0293,0.0281,0.0226,0.0155,0.0152,0.009,0.0079,0.0024,0.0022,0.0034,0.0033,0.0035,0.0035,0.0036,0.0036,0.0036,0,0.0201,0.0215,0.0232,0.0242,0.0276,0.0283,0.0322,0.0333,0.0357,0.0385,0.0354,0.0361,0.0287,0.0243,0.0171,0.0092,0.01,0.0026,0.0012,0.0045,0.0046,0.0031,0.0032,0.0034,0.0034,0.0035,0.0035,0,0.0201,0.021,0.0234,0.0263,0.0279,0.0302,0.0354,0.0385,0.04,0.0435,0.0437,0.0415,0.0356,0.0274,0.0183,0.0118,0.004,0.0006,0.0044,0.0032,-0.0027,-0.0025,-0.0056,-0.0057,-0.0058,-0.0058,-0.0059,0,0.0197,0.0208,0.025,0.0274,0.0289,0.0329,0.0365,0.0401,0.0436,0.0466,0.0483,0.0444,0.0411,0.0279,0.0187,0.005,0.0026,-0.0022,-0.0025,-0.0024,-0.0035,-0.0032,-0.0029,-0.006,-0.006,-0.006,-0.006,0,0.0196,0.0212,0.0236,0.0285,0.0326,0.0373,0.0424,0.0455,0.0498,0.0513,0.0518,0.0455,0.0389,0.0283,0.0176,0.0077,0.0008,-0.0029,-0.0028,-0.0032,-0.0028,-0.0038,-0.0035,-0.0062,-0.0062,-0.0062,-0.0062,0,0.02,0.0216,0.0253,0.0298,0.0349,0.0402,0.043,0.0473,0.051,0.0542,0.054,0.0472,0.0437,0.0296,0.02,0.0102,0.0072,0.0029,0.0025,0.0027,0.0062,0.008,0.0068,0,0,0,0,0,0.0204,0.0227,0.0266,0.0317,0.0367,0.0398,0.0466,0.0494,0.0534,0.054,0.0544,0.0481,0.035,0.0302,0.02,0.0178,0.0047,0.0054,-0.0006,-0.0074,-0.0071,-0.0045,0,0,0,0,0,0,0.0208,0.0243,0.0263,0.0323,0.0359,0.0419,0.0462,0.0493,0.05,0.0523,0.0459,0.0437,0.0314,0.0401,0.0191,0.0164,0.0108,-0.0001,-0.0004,-0.0075,-0.0073,-0.0071,-0.0043,0,0,0,0,0]}]]